Date,TemperatureHighF,TemperatureAvgF,TemperatureLowF,DewpointHighF,DewpointAvgF,DewpointLowF,HumidityHigh,HumidityAvg,HumidityLow,PressureMaxIn,PressureMinIn,WindSpeedMaxMPH,WindSpeedAvgMPH,GustSpeedMaxMPH,PrecipitationSumIn
2013-3-1,34.5,30.9,28.6,30.1,24.2,19.7,93,76,69,29.86,29.75,6,3,11,0.00
2013-3-2,29.8,27.7,25.5,21.1,17.3,13.7,72,64,54,29.89,29.85,6,3,11,0.00
2013-3-3,33.3,27.7,19.9,21.1,16.0,11.6,75,62,48,29.90,29.85,6,2,11,0.00
2013-3-4,43.3,30.3,16.5,24.8,17.1,10.0,83,60,35,29.95,29.77,4,1,10,0.00
2013-3-5,36.3,34.1,28.0,32.8,28.8,23.1,96,81,60,29.79,29.44,4,2,11,0.00
2013-3-6,34.3,30.1,26.8,27.6,25.2,21.9,95,82,68,30.07,29.51,0,0,0,0.00
2013-3-7,43.5,33.6,29.3,29.6,25.1,20.8,89,72,51,30.19,30.05,3,1,7,0.00
2013-3-8,47.8,35.6,24.3,25.1,21.3,17.5,78,57,34,30.28,30.17,4,1,10,0.00
2013-3-9,56.1,43.1,29.8,35.2,28.4,20.9,74,57,36,30.18,29.81,5,2,11,0.00
2013-3-10,67.8,56.4,46.0,38.5,34.4,31.6,62,44,29,29.81,29.60,6,3,16,0.00
2013-3-11,59.4,47.8,34.7,51.5,41.7,28.6,96,80,43,29.68,29.42,8,5,18,0.00
2013-3-12,47.3,36.3,32.7,30.7,25.7,21.4,90,66,42,29.86,29.68,10,4,18,0.00
2013-3-13,32.7,28.6,25.2,27.1,20.8,14.0,86,73,58,30.03,29.83,6,4,21,0.00
2013-3-14,47.3,37.0,19.6,27.5,17.8,8.2,78,49,22,30.15,29.97,5,2,11,0.00
2013-3-15,36.0,31.3,28.4,30.7,28.3,25.9,92,89,77,29.98,29.79,3,1,7,0.00
2013-3-16,53.6,43.3,35.4,45.0,39.4,32.5,95,87,66,29.85,29.45,5,3,9,0.00
2013-3-17,37.6,35.4,31.5,29.8,25.2,23.8,85,66,61,29.96,29.79,6,4,17,0.00
2013-3-18,45.0,35.3,32.7,44.0,33.2,27.1,98,92,75,29.79,29.40,8,3,16,0.00
2013-3-19,43.3,34.4,25.5,35.9,15.3,9.8,93,46,25,29.92,29.62,8,3,18,0.00
2013-3-20,34.9,29.4,23.4,17.7,10.5,0.1,61,45,28,29.92,29.80,7,4,17,0.00
2013-3-21,36.7,28.1,18.0,11.5,6.3,1.8,62,40,26,29.83,29.77,5,2,13,0.00
2013-3-22,48.9,32.7,19.0,20.3,12.3,7.3,68,45,23,29.87,29.80,4,1,9,0.00
2013-3-23,52.2,36.4,30.2,22.3,19.9,14.8,66,53,25,29.88,29.82,3,1,7,0.00
2013-3-24,35.2,31.2,28.2,29.9,28.4,19.8,95,90,53,29.71,29.25,9,3,15,0.00
2013-3-25,36.9,31.2,27.5,31.2,27.4,23.3,94,86,73,29.78,29.27,6,4,15,0.00
2013-3-26,39.2,32.0,30.6,30.1,27.6,26.6,87,84,67,29.95,29.78,4,3,10,0.00
2013-3-27,41.9,35.4,27.7,28.9,23.0,16.8,81,62,44,30.13,30.05,4,2,7,0.00
2013-3-28,53.2,43.8,23.4,26.0,23.2,15.4,74,46,30,30.17,30.09,4,1,8,0.00
2013-3-29,61.9,42.2,26.1,34.6,26.7,20.9,87,59,26,30.13,30.02,4,1,8,0.00
2013-3-30,60.8,38.0,28.2,37.3,27.8,23.0,88,70,28,30.05,29.79,3,1,10,0.00
2013-3-31,59.7,44.9,42.3,44.1,36.4,32.2,86,72,40,29.75,29.60,4,0,7,0.00